Location: Blue Mountain Vista Observatory
(40.6992°N, 75.9422°W)
Time: 11:21:47
(UTC-04:00)

Daily predictions for brighter satellites

Satellite Brightness Start Highest point End
(mag) Time Altitude Azimuth Time Altitude Azimuth Time Altitude Azimuth
Cosmos 332 Rocket 4.4 21:05:32 10° NNW 21:10:17 58° WSW 21:15:02 10° S
Cosmos 2219 4.4 21:08:21 10° SSE 21:12:35 22° E 21:16:49 10° NE
H-2A R/B 2.3 21:12:26 10° SSE 21:16:55 66° ENE 21:21:25 10° N
USA 229 DEB 3.7 21:12:48 10° SSW 21:19:38 67° ESE 21:26:34 10° NE
USA 229 3.7 21:12:54 10° SSW 21:19:44 67° ESE 21:26:40 10° NE
Cosmos 1328 Rocket 3.6 21:16:07 10° N 21:20:36 88° ENE 21:25:02 10° S
Cosmos 2322 4.4 21:15:28 10° N 21:20:52 41° ENE 21:26:13 10° SE
Cosmos 1441 Rocket 3.1 21:18:32 10° S 21:22:18 76° E 21:26:04 10° NNE
S3M 4.0 21:18:50 10° N 21:24:58 86° W 21:31:06 10° S
Cosmos 2322 Rocket 2.5 21:19:44 10° NNW 21:25:19 67° WSW 21:30:51 10° S
Cosmos 1726 4.4 21:24:57 10° NE 21:25:56 11° ENE 21:26:54 10° E
Cosmos 773 Rocket 4.1 21:22:16 10° NNW 21:27:26 63° ENE 21:32:36 10° SSE
CZ-4 SHROUD 4.0 21:24:44 10° SE 21:27:35 35° ENE 21:30:30 10° N
Cosmos 2228 Rocket 3.9 21:27:24 10° NNW 21:31:46 53° W 21:36:09 10° S
Cosmos 1980 Rocket 4.4 21:30:19 10° NW 21:34:31 22° W 21:38:42 10° SSW
Cosmos 1743 Rocket 4.3 21:30:21 10° SSW 21:34:45 58° W 21:39:10 10° N
SL-16 R/B 2.7 21:29:44 10° NNW 21:35:19 60° WSW 21:40:52 10° S
Cosmos 2360 Rocket 2.5 21:30:03 10° NNW 21:35:35 54° ENE 21:40:35 13° SE
Cosmos 968 Rocket 4.4 21:34:27 10° SW 21:39:31 54° WNW 21:44:40 10° N
NOSS 3-1 (A) 4.5 21:35:22 10° SSE 21:39:44 22° ESE 21:44:24 10° ENE
Cosmos 1500 Rocket 3.8 21:36:46 10° SSW 21:41:07 73° W 21:45:32 10° N
ATLAS CENTAUR R/B 3.5 21:37:39 10° WNW 21:41:09 23° WSW 21:44:26 10° SSW
Cosmos 1908 3.2 21:38:36 10° N 21:42:31 77° E 21:46:19 11° SSE
deb Chang Zheng 4 4.3 21:43:26 10° N 21:47:42 57° WNW 21:51:57 10° SSW
MetOp-B 4.2 21:45:28 12° SSE 21:50:26 69° ENE 21:55:47 10° N
Cosmos 1939 Rocket 3.6 21:48:21 10° S 21:52:12 49° W 21:56:01 10° NNW
DELTA 2 R/B(2) 3.5 21:54:31 10° WSW 21:56:10 44° SSE 21:57:18 22° E
Delta 2 Rocket 3.7 21:53:32 10° SW 21:56:39 30° S 21:58:00 22° SE
Cosmos 883 Rocket 4.5 21:51:51 10° N 21:58:07 86° E 22:04:05 11° S
Cosmos 1674 3.0 21:54:57 10° SSW 21:58:45 69° W 22:02:36 10° N
Envisat 3.4 21:54:05 10° S 21:59:06 61° W 22:04:09 10° NNW
SPOT 5 2.9 21:55:18 11° S 21:59:36 76° WSW 22:04:22 10° NNW
Cosmos 2227 Rocket 3.9 22:00:43 13° ESE 22:01:32 13° E 22:04:08 10° ENE
ATLAS 2AS CENTAUR R/B 4.3 22:00:49 14° ESE 22:02:36 16° ESE 22:06:48 10° ENE
SL-08 RB Rocket 4.3 22:02:37 20° SE 22:05:21 42° ENE 22:09:36 10° N
Cosmos 1833 4.5 22:00:16 10° SSW 22:05:58 73° WNW 22:11:40 10° NNE
Tiangong 1 3.2 22:06:18 10° SSW 22:07:00 14° SSW 22:07:00 14° SSW
Cosmos 1437 Rocket 4.0 22:05:38 10° NNW 22:09:09 37° W 22:12:42 10° SSW
Cosmos 1300 3.2 22:05:28 10° N 22:09:10 45° E 22:11:00 25° SE
Cosmos 2112 Rocket 4.0 22:03:55 10° NNW 22:09:11 78° ENE 22:12:50 20° SSE
Cosmos 2333 Rocket 3.9 22:04:54 10° N 22:09:15 21° NE 22:13:11 11° E
USA 245 2.2 22:10:34 35° SE 22:11:28 64° ENE 22:13:51 10° N
Cosmos 2298 Rocket 4.4 22:07:58 15° SSE 22:11:58 43° ESE 22:16:59 10° NNE
Cosmos 1437 3.0 22:08:49 10° SSW 22:12:01 68° W 22:15:18 10° N
DELTA 2 R/B (1) 3.7 22:07:17 10° W 22:12:45 61° SSW 22:16:24 21° ESE
Cosmos 1937 Rocket 4.3 22:18:23 23° SE 22:20:25 31° E 22:24:57 10° NE
Cosmos 2315 Rocket 4.0 22:14:24 10° N 22:20:39 89° W 22:25:34 17° S
COSMOS 2428 2.9 22:15:45 10° NNW 22:21:23 62° ENE 22:24:46 24° SE
Sich 1 3.3 22:20:01 25° SSE 22:22:18 50° E 22:26:35 10° NNE
Cosmos 1633 Rocket 3.3 22:21:05 26° SSE 22:23:12 48° E 22:27:25 10° NNE
Cosmos 2151 3.6 22:19:18 10° SSW 22:23:24 53° W 22:27:32 10° N
YAOGAN 6 3.1 22:23:28 21° S 22:25:43 54° W 22:29:18 10° NNW
NOSS 3-1 (C) 3.3 22:21:16 10° SSW 22:27:01 67° ESE 22:33:25 10° NE
Cosmos 2297 Rocket 3.8 22:28:39 16° E 22:28:52 16° E 22:32:11 10° ENE
Cosmos 304 Rocket 4.3 22:24:22 10° NNW 22:29:03 53° WSW 22:32:12 20° S
CZ-4C R/B 3.3 22:29:16 37° SE 22:30:19 52° ENE 22:33:43 10° N
Cosmos 1455 3.9 22:29:08 10° NNE 22:31:55 19° ENE 22:32:31 18° E
H-2A R/B 2.5 22:29:35 26° SE 22:32:20 50° ENE 22:37:35 10° N
Cosmos 1805 Rocket 3.8 22:33:35 15° SSW 22:37:11 68° W 22:41:38 10° N
Cosmos 2219 Rocket 2.9 22:32:38 10° N 22:37:57 42° ENE 22:40:43 25° ESE
ARGOS 3.3 22:37:03 23° S 22:40:31 72° WSW 22:45:56 10° NNW
Landsat 7 3.8 22:39:25 32° SSE 22:41:36 74° ENE 22:46:22 10° N
Cosmos 2237 4.2 22:37:18 10° NNW 22:43:04 84° WSW 22:46:02 30° SSE
SPOT 1/Viking Rocket 4.1 22:41:07 20° S 22:44:32 53° W 22:49:35 10° NNW
Cosmos 1680 Rocket 4.5 22:41:22 10° NNW 22:46:16 41° WSW 22:49:36 19° SSW
Cosmos 2058 3.9 22:46:02 14° SSW 22:49:20 43° WNW 22:53:16 10° N
Nadezhda 1 Rocket 4.2 22:43:59 10° N 22:49:56 53° E 22:52:38 31° SE
Cosmos 292 Rocket 3.9 22:47:18 10° NNW 22:52:02 63° ENE 22:53:38 39° SE
Cosmos 1980 4.4 22:47:55 10° N 22:53:16 41° ENE 22:55:44 27° ESE
Spot 4 4.2 22:52:29 36° SE 22:54:10 54° ENE 22:58:54 10° N
Cosmos 1707 Rocket 4.3 22:51:43 10° NNW 22:55:56 48° W 22:58:03 26° SSW
Cosmos 2219 4.0 22:50:41 10° SW 22:56:17 53° WNW 23:01:56 10° NNE
Terra 1.8 22:55:46 40° SSE 22:57:28 75° ENE 23:02:14 10° N
SAR-Lupe-2 3.6 22:57:19 55° ESE 22:57:44 61° ENE 23:01:17 10° N
COSMOS 2455 4.5 22:54:01 10° N 22:58:53 25° NE 23:02:41 14° E
SL-14 R/B 4.0 22:56:58 24° SW 22:59:06 50° W 23:03:00 10° N
Cosmos 1666 Rocket 4.2 22:56:36 20° SSW 22:59:24 52° W 23:03:45 10° N
Cosmos 1703 3.1 22:58:43 50° S 22:59:41 87° E 23:03:36 10° N
Cosmos 1898 Rocket 3.5 22:56:18 19° SSW 23:00:03 81° WNW 23:05:17 10° NNE
Cosmos 1745 Rocket 3.9 22:57:28 28° S 23:00:56 79° E 23:07:08 10° N
Cosmos 2150 Rocket 4.2 22:57:11 17° SSW 23:01:29 78° WNW 23:06:59 10° NNE
Cosmos 1726 2.9 22:57:57 10° NNW 23:01:36 47° W 23:02:46 34° SW
SL-08 R/B 4.5 22:58:31 24° S 23:02:25 87° W 23:08:44 10° N
Cosmos 1271 Rocket 2.6 22:58:40 10° N 23:02:30 82° W 23:03:14 57° S
Cosmos 2333 4.2 22:57:31 10° NNW 23:03:16 78° WSW 23:05:40 36° S
Spot 2 4.4 23:00:43 10° NNE 23:05:50 68° ESE 23:07:28 42° S
Cosmos 1346 4.2 23:07:04 36° NE 23:07:04 36° NE 23:09:10 10° NNE
Cosmos 2237 Rocket 2.7 23:00:58 10° NNW 23:06:30 48° ENE 23:08:42 32° ESE
Cosmos 2082 3.9 23:07:20 39° SSE 23:08:55 50° ESE 23:14:26 10° NE
Cosmos 1470 Rocket 3.4 23:11:47 54° S 23:12:45 84° E 23:17:05 10° N
DMSP B5D2-2 4.0 23:07:35 10° NNE 23:12:50 90° WNW 23:15:08 35° SSW
Cosmos 220 Rocket 3.9 23:12:12 44° SSW 23:13:35 87° WNW 23:18:03 10° NNE
Cosmos 1933 Rocket 3.5 23:13:06 52° S 23:14:10 84° E 23:18:39 10° N
IGS 5A 3.5 23:14:41 55° S 23:15:30 76° WSW 23:19:42 10° NNW
Iridium 2 4.0 23:14:54 47° SW 23:15:43 60° W 23:19:32 10° N
SeaSat 1 3.6 23:15:33 25° E 23:17:23 33° NE 23:21:48 10° N
Cosmos 2360 Rocket 4.1 23:15:02 10° NW 23:19:07 21° W 23:22:22 13° SW
Cosmos 1933 4.5 23:18:55 10° NNE 23:22:34 31° ENE 23:22:34 31° ENE
NOSS 3-1 (A) 3.9 23:24:08 10° SW 23:29:57 60° NW 23:36:28 10° NNE
Cosmos 1386 Rocket 4.4 23:27:31 37° S 23:30:04 85° W 23:36:07 10° N
NOSS 0 Rocket 3.9 23:25:09 10° NNW 23:31:20 83° WSW 23:33:20 46° SSE
Cosmos 2181 Rocket 4.4 23:25:31 10° N 23:31:43 52° ENE 23:33:42 39° SE
Meteor 1-4 Rocket 4.1 23:30:22 10° NNW 23:33:38 28° W 23:34:10 27° WSW
Cosmos 192 4.3 23:34:23 10° NNW 23:39:18 74° ENE 23:40:02 61° SE
Cosmos 1626 2.5 23:40:11 56° W 23:40:18 56° W 23:44:02 10° N
Cosmos 2227 Rocket 2.2 23:42:28 37° SSW 23:44:48 80° WNW 23:50:30 10° NNE
ERBS 4.2 23:51:23 25° NE 23:51:23 25° NE 23:52:57 10° NE
IKONOS-2 4.5 23:50:00 70° E 23:50:05 71° ENE 23:54:22 10° N
Cosmos 2333 Rocket 2.4 23:48:18 10° NNW 23:53:59 62° WSW 23:55:11 50° SSW
Cosmos 1862 Rocket 4.3 23:50:13 10° NNW 23:54:20 42° W 23:54:46 41° WSW
